GOES 16 (41866 NORAD) Tracking and Keplerian Element Data

This shows tracking and keplerian element data for the satellite.

Feedback or suggestion? Click here.




ElementValue
Catalog41866
NameGOES 16
Epoch Orbit3330
Epoch Day354.25019709
Epoch Year2025
RAAN102.519
Inclination0.0742
Eccentricity0.0003024
Argument of Perigee163.0032
Mean Anonmoly168.9661
Mean Motion1.00272172
Decay Rate-6.7E-07
L11 41866U 16071A 25354.25019709 -.00000067 00000+0 00000+0 0 9994
L22 41866 0.0742 102.5190 0003024 163.0032 168.9661 1.00272172 33300



Live tracking and technical data element details for GOES 16 (NORAD 41866). GOES 16 can be tracked NOW for your location showing map with azimuth and elevation plus other details from your city location.







IsCatalogInMostPopularTable: catalog: 41866, numindb: 795
Update: records affected: 1



GetName: 41866 GOES 16

Hit Count: updated at: Sun, 08 Feb 2026 17:18:22 GMT